Tracking 21470 objects as of 23-Sep-2020
HD Live streaming from Space Station
objects crossing your sky now

STARLINK-1190

Track STARLINK-1190 now!
10-day predictions
STARLINK-1190 is classified as:


NORAD ID: 45083
Int'l Code: 2020-006AR
Perigee: 555.8 km
Apogee: 557.8 km
Inclination: 53.0 °
Period: 95.6 minutes
Semi major axis: 6927 km
RCS: Unknown
Launch date: January 29, 2020
Source: United States (US)
Launch site: AIR FORCE EASTERN TEST RANGE (AFETR)
aabbcc
Your satellite tracking list
Your tracking list is empty




NASA's NSSDC Master Catalog

Two Line Element Set (TLE):
1 45083U 20006AR  20267.58334491 -.00037682 +00000-0 -25793-2 0  9998
2 45083 053.0009 234.0175 0001391 064.9477 203.3825 15.05601350036404
Source of the keplerian elements: AFSPC